Powrót do katalogu

FENGYUN 1C DEB

LostPO
NORAD 31932·DEBRIS·🇨🇳 China

Wystrzelony May 10, 1999 z Taiyuan Satellite Launch Center

Loading…

Następne Przeloty (najbliższe 24 godziny)

TLE

NieaktualneSource: Space-Track

Epoka: Jan 12, 2021, 07:53 UTC

1 31932U 99025CMH 21012.32899396 -.00000556  00000-0 -28429-3 0  9994
2 31932  97.7609  90.6617 0131964 136.6133 224.5518 14.07922030697854

Śledź FENGYUN 1C DEB w czasie rzeczywistym z AllMySat

Download on the App Store